Content
SEND FEEDBACK

Daily
Averages
Monthly
Summary
United States of America

WILMINGTON, NORTH CAROLINA


Home > North America > United States > North Carolina
Elevation: 72 feet     Latitude: 34 16N     Longitude: 077 54W

WEATHER
 
SELECT A DAY
Number of Records: 213,412;   Date Range: 1/1/95 - 11/27/14
 
SHARE

PRINT THIS DATA

[ ← Previous Day ]
WEATHER ALMANAC - SEPTEMBER 21, 2013
[ Next Day → ]
[ °C ]   °F
Weather ElementAverageHighLow
Temperature73.4 °F81 °F (4:53 pm)68 °F (1:53 am)
Dewpoint68.6 °F71.1 °F (3:53 pm)66 °F (1:53 am)
Humidity85.2 %96 % (5:53 am)69 % (4:53 pm)
Barometer29.87 in29.96 in (1:53 am)29.75 in (11:53 pm)
Wind Speed4.1 mph9.2 mph (3:09 pm)
Weather ElementAverage
Visibility9.1 mi
Wind DirectionE (93.3 °)

Weather ElementTotal
Precipitation0.17 in
Cooling Degree Days9.5 (Base 65)
Growing Degree Days24.5 (Base 50)
Averaged from 33 records on September 21, 2013
WEATHER CONDITIONS BREAKOUT
WIND DIRECTION BREAKOUT
WEATHER BY HOUR - SEPTEMBER 21, 2013
[ °C ]   °F
Local TimeTemperatureDewpointHumidityBarometerVisibilityWind DirectionWind SpeedGust SpeedPrecipitationEventsConditions
1:53 AM68.0 °F66.0 °F93 %29.96 in10.0 miCalm0.01 inOvercast
2:53 AM69.1 °F66.0 °F90 %29.94 in10.0 miCalmOvercast
3:53 AM69.1 °F66.9 °F93 %29.94 in10.0 miNE (40°)5.8 mphOvercast
4:53 AM69.1 °F66.9 °F93 %29.93 in10.0 miCalm0.05 inOvercast
5:53 AM68.0 °F66.9 °F96 %29.93 in6.0 miNE (50°)3.5 mph0.01 inRainLight Rain
6:53 AM68.0 °F66.0 °F93 %29.92 in10.0 miNE (40°)3.5 mph0.00 inRainLight Rain
7:53 AM68.0 °F66.0 °F93 %29.92 in10.0 miENE (70°)3.5 mph0.01 inMostly Cloudy
8:53 AM70.0 °F66.9 °F90 %29.93 in10.0 miCalmOvercast
9:10 AM69.8 °F66.2 °F88 %29.93 in10.0 miCalmOvercast
9:41 AM69.8 °F66.2 °F88 %29.92 in1.8 miEast (100°)3.5 mph0.03 inRainHeavy Rain
9:53 AM70.0 °F68.0 °F93 %29.92 in3.0 miEast (90°)3.5 mph0.06 inRainLight Rain
9:57 AM69.8 °F68.0 °F94 %29.92 in5.0 miEast (80°)3.5 mph0.00 inRainLight Rain
10:26 AM71.6 °F68.0 °F88 %29.92 in7.0 miCalm0.00 inOvercast
10:53 AM72.0 °F69.1 °F91 %29.91 in8.0 miEast (90°)4.6 mph0.00 inMostly Cloudy
11:08 AM73.4 °F69.8 °F88 %29.91 in10.0 miESE (120°)3.5 mphMostly Cloudy
11:27 AM73.4 °F69.8 °F88 %29.91 in10.0 miESE (120°)4.6 mphMostly Cloudy
11:35 AM73.4 °F69.8 °F88 %29.91 in10.0 miVariable4.6 mphOvercast
11:53 AM73.9 °F70.0 °F87 %29.90 in10.0 miEast (80°)4.6 mphOvercast
12:43 PM73.4 °F69.8 °F88 %29.88 in10.0 miEast (100°)4.6 mphOvercast
12:53 PM75.0 °F70.0 °F84 %29.88 in10.0 miEast (100°)5.8 mphOvercast
1:53 PM77.0 °F70.0 °F79 %29.85 in10.0 miESE (110°)3.5 mphOvercast
2:53 PM80.1 °F70.0 °F71 %29.83 in10.0 miEast (90°)5.8 mphOvercast
3:09 PM80.6 °F69.8 °F70 %29.82 in10.0 miSE (140°)9.2 mphMostly Cloudy
3:27 PM80.6 °F69.8 °F70 %29.81 in10.0 miSSE (150°)6.9 mphMostly Cloudy
3:53 PM78.1 °F71.1 °F79 %29.81 in10.0 miSSE (150°)4.6 mph0.00 inRainLight Rain
4:53 PM81.0 °F70.0 °F69 %29.79 in10.0 miSSE (150°)6.9 mph0.00 inPartly Cloudy
5:53 PM78.1 °F69.1 °F74 %29.79 in10.0 miSouth (170°)6.9 mphPartly Cloudy
6:53 PM75.9 °F69.1 °F79 %29.78 in10.0 miSSE (160°)5.8 mphClear
7:53 PM75.9 °F69.1 °F79 %29.78 in10.0 miSouth (180°)5.8 mphPartly Cloudy
8:53 PM75.0 °F69.1 °F82 %29.78 in10.0 miSouth (180°)5.8 mph0.00 inClear
9:53 PM75.0 °F70.0 °F84 %29.77 in10.0 miSouth (170°)4.6 mph0.00 inScattered Clouds
10:53 PM75.0 °F70.0 °F84 %29.76 in10.0 miSouth (170°)4.6 mphScattered Clouds
11:53 PM75.9 °F71.1 °F85 %29.75 in10.0 miSouth (180°)5.8 mph0.00 inRainLight Rain
Hourly data recorded from KILM, located miles away from Wilmington, North Carolina







STORIES FROM OUR PARTNERS